Location: Unspecified
(0.0000°N, 0.0000°E)
Time: 10:45:01
(UTC+00:00)

Vanguard 2 - Pass Details

Date: 13 October 2022
Orbit: 553 x 2933 km, 32.9° (Epoch: 29 November)

Event Time Altitude Azimuth Distance (km) Brightness Sun altitude
Rises 04:59:47 0° 221° (SW) 3,137 10.3 -11.5°
Reaches altitude 10° 05:02:37 10° 211° (SSW) 2,017 9.5 -10.8°
Maximum altitude 05:06:30 31° 148° (SSE) 997 8.6 -9.9°
Drops below altitude 10° 05:10:02 10° 83° (E) 1,821 10.9 -9.0°
Sets 05:12:28 0° 72° (ENE) 2,775 11.7 -8.4°
